Wind_Speed
18 18 19 21 22 21 22 23 22 22 21 21 20 20 20 20 20 19 19 18 17 16 16 16 17 19 20 21 22 23 24 24 24 24 23 23 21 19 18 17 17 17 16 16 16 15 15 14 14 14 13 12 12 12 12 13 14 15 14 13 12 12 12 11 10 9 8 7 8 8 7 7 6 5 5 4 5 6 6 5 4 4 4 4 5
19 18 20 22 22 22 22 22 22 21 20 20 20 20 20 20 19 19 18 17 16 15 15 16 17 18 20 20 21 22 23 24 24 24 23 23 22 19 17 17 17 17 16 16 16 15 15 15 14 14 13 12 11 12 12 13 14 14 13 12 11 10 11 10 10 10 9 9 10 9 8 7 6 5 4 4 5 6 6 5 6 6 6 6 7
20 19 20 22 22 22 22 22 21 20 20 19 19 19 19 19 19 18 17 16 15 14 15 16 17 18 19 20 21 22 23 24 24 24 23 23 22 19 17 17 17 16 17 17 16 16 16 15 15 14 13 12 12 12 13 13 13 12 11 11 10 10 10 10 10 10 10 10 9 8 7 6 5 4 4 4 4 5 5 6 7 7 7 7 7
20 21 21 21 22 22 21 21 20 19 18 18 19 19 19 19 18 17 16 15 14 14 14 15 17 18 19 19 20 21 22 23 24 24 23 23 23 20 17 16 16 16 17 17 17 16 16 16 15 14 13 13 13 14 14 12 11 10 9 9 9 10 10 10 10 10 9 9 8 7 6 5 4 4 3 3 4 4 5 5 6 6 6 7 7
20 21 21 21 22 22 21 20 19 18 18 18 18 18 18 18 17 16 15 14 13 13 14 15 17 18 19 19 19 20 22 23 24 24 23 24 23 20 17 15 15 16 18 18 17 17 17 16 15 14 13 12 13 14 12 11 9 8 8 8 8 8 9 9 8 8 7 6 6 6 5 4 4 4 3 4 4 5 5 6 6 6 6 7 8
20 21 21 21 21 21 20 20 19 18 18 18 18 18 18 17 16 15 14 14 13 13 13 15 17 18 19 19 19 20 22 23 24 24 23 23 23 20 16 14 14 15 17 18 18 17 17 16 15 14 13 13 13 13 10 9 8 8 7 7 7 8 8 8 7 6 6 6 6 5 5 4 4 3 4 5 5 6 6 6 6 6 7 7 8
20 20 20 20 20 20 20 19 18 18 17 17 18 18 18 17 15 14 13 13 12 12 13 15 17 18 19 19 19 20 22 23 24 23 23 23 22 20 15 13 13 14 17 18 18 18 17 16 15 14 13 13 14 12 10 8 8 7 7 7 7 8 9 8 6 5 5 5 5 5 4 3 3 4 4 5 5 6 6 6 6 6 6 7 7
20 19 19 19 19 19 18 18 18 17 17 17 18 18 17 16 14 14 13 12 12 12 13 15 16 18 19 19 19 21 22 23 24 23 23 23 22 19 15 12 12 14 16 17 18 18 17 16 14 14 13 13 13 11 9 8 7 7 7 7 8 9 9 7 5 4 4 5 5 4 4 4 3 3 3 4 4 5 5 5 5 5 6 6 6
19 18 17 17 17 18 17 17 17 17 16 17 17 17 16 15 14 13 12 12 12 13 14 15 16 18 19 19 20 21 22 23 24 24 23 23 22 19 15 12 12 13 16 17 17 17 17 16 14 13 13 14 13 11 9 8 7 7 7 7 8 9 8 6 4 3 4 5 5 5 4 4 3 2 2 3 3 4 4 4 4 4 5 5 4
18 17 16 17 17 17 17 17 16 16 16 16 17 16 16 15 14 13 12 11 12 13 14 15 16 18 18 19 20 21 23 24 25 24 24 23 21 18 14 12 12 12 15 16 17 17 17 16 14 13 13 14 13 10 8 7 7 7 7 7 8 8 7 5 3 3 4 5 5 4 4 3 2 1 1 2 3 3 4 3 3 3 3 3 3
18 17 16 16 16 16 16 16 16 16 16 16 16 16 15 14 14 12 11 12 13 14 15 15 16 17 18 19 21 22 24 25 25 24 24 23 21 18 14 12 12 12 14 16 16 16 16 16 14 13 12 13 11 9 8 7 6 6 6 7 8 8 6 4 2 2 4 4 4 3 2 2 1 0 1 2 3 3 3 3 3 2 2 2 2
18 17 16 16 16 16 15 15 15 15 15 16 16 15 14 14 13 12 12 13 14 15 16 16 16 17 18 20 21 23 25 25 25 25 24 24 21 18 14 12 11 12 13 15 15 15 15 15 15 13 12 11 10 8 7 7 6 6 7 8 8 7 5 3 1 2 3 3 3 2 1 0 0 1 2 3 3 3 3 3 2 2 1 1 1
17 17 17 16 16 15 16 15 15 15 15 15 15 15 14 13 13 12 13 14 15 17 16 16 17 17 18 20 22 24 25 25 26 26 25 24 21 17 14 12 11 11 12 14 15 15 15 15 15 14 13 12 10 7 6 6 6 7 8 8 8 7 5 2 1 1 2 2 2 1 1 1 1 2 3 3 3 3 3 3 3 2 2 2 2
18 18 18 17 17 16 17 16 15 15 15 15 14 14 13 14 13 13 14 15 17 17 17 17 17 17 19 21 23 25 26 26 26 26 26 24 22 17 14 12 11 11 12 13 15 15 14 14 14 14 13 12 10 8 7 6 6 7 8 8 8 7 5 2 1 1 2 2 2 1 1 1 2 2 3 3 3 4 4 4 4 4 4 3 3
19 19 18 18 18 18 18 17 16 15 14 14 14 14 14 15 15 15 15 16 17 17 17 17 17 18 20 23 24 26 27 27 27 27 26 24 22 17 14 12 10 11 11 12 14 15 14 14 13 13 12 12 10 8 7 6 6 7 8 7 8 7 5 2 1 1 1 1 1 2 2 1 2 2 3 3 4 4 4 4 5 5 5 5 5
19 19 19 18 18 17 17 16 15 14 14 14 15 15 15 16 15 15 15 16 17 17 17 17 17 19 22 24 26 27 28 27 27 27 27 24 21 17 14 11 10 10 11 12 14 15 14 13 13 13 12 11 9 8 6 5 5 6 6 7 7 8 6 3 2 2 1 1 1 2 2 2 2 3 4 4 4 5 5 5 5 5 6 6 6
20 19 18 18 18 17 17 15 15 15 15 15 15 15 16 16 15 15 16 16 17 17 17 17 19 21 24 26 27 28 29 28 27 27 26 24 21 16 13 11 10 10 10 12 14 14 14 13 13 12 12 11 9 7 6 5 4 4 5 6 7 7 6 4 3 2 2 2 2 2 3 3 4 4 4 5 5 5 5 5 6 6 6 6 7
21 20 19 18 18 17 16 15 15 16 16 16 16 16 16 15 15 15 16 17 17 17 17 19 22 24 26 27 28 29 29 28 27 27 26 23 20 15 13 12 12 11 11 12 14 14 14 13 13 12 12 11 9 6 5 5 4 3 4 5 6 6 6 4 4 3 2 3 3 3 4 4 5 5 5 5 5 5 6 6 6 6 7 7 7
23 22 20 19 18 17 17 17 17 16 16 16 16 15 15 15 15 15 15 16 16 18 20 22 24 26 27 28 29 29 29 27 25 25 24 22 18 15 13 13 13 13 11 12 14 14 13 13 13 12 12 12 9 5 4 5 4 3 4 5 6 6 5 5 5 4 3 4 4 5 5 5 6 6 6 6 6 6 6 6 7 7 7 7 8
26 25 23 20 18 18 19 18 16 15 14 15 14 14 14 14 14 14 15 16 18 20 22 24 26 27 28 28 29 29 29 26 24 24 23 20 17 15 14 13 13 13 13 13 14 13 12 12 12 12 12 12 10 6 4 4 3 3 4 5 6 7 6 5 5 5 5 5 6 6 6 7 7 7 7 7 7 7 7 7 7 7 7 8 8
27 27 25 23 21 21 20 18 16 15 15 14 13 13 14 14 14 15 16 18 20 22 24 26 27 28 29 28 29 28 27 24 23 23 22 20 17 17 15 13 13 14 14 14 14 12 11 12 12 12 12 12 11 7 5 4 4 3 3 4 6 7 7 6 6 6 7 7 7 7 7 8 8 8 8 8 8 8 8 8 8 8 8 8 9
26 26 26 26 24 23 21 19 18 17 16 14 14 14 15 15 16 17 18 20 22 23 25 26 28 30 29 28 27 27 25 23 23 23 21 19 17 17 16 14 14 14 14 15 14 12 11 11 12 12 12 12 11 9 7 5 4 4 4 4 6 6 7 7 7 7 8 8 8 8 9 9 9 9 9 9 9 9 9 9 10 10 10 10 10
27 26 26 26 25 24 22 21 19 17 16 16 16 16 17 17 18 19 20 21 22 23 24 26 28 30 29 27 26 26 24 23 22 22 20 18 18 17 16 15 15 15 15 15 14 13 11 11 12 12 12 12 11 10 9 7 4 4 4 5 6 7 7 8 8 8 8 8 9 9 10 10 10 10 10 10 10 10 10 10 11 11 11 11 11
28 27 26 24 23 23 22 20 18 17 18 18 18 19 19 21 21 20 19 20 21 22 22 24 27 28 27 25 25 25 24 23 22 20 19 19 20 18 16 16 16 16 16 15 14 13 11 10 11 12 12 12 11 10 10 9 6 5 5 5 6 7 7 7 8 8 8 9 9 10 10 11 11 11 11 11 11 11 11 11 11 11 11 11 12
25 26 27 25 22 21 21 20 19 19 19 19 20 21 22 23 23 21 19 20 20 19 20 23 25 24 24 23 24 24 23 23 21 19 20 21 20 18 17 17 17 16 16 15 14 13 11 10 11 12 12 12 11 11 11 10 8 6 5 5 6 7 7 7 7 8 9 9 9 10 10 11 11 12 12 12 12 11 11 11 11 11 11 11 11
23 21 22 24 23 22 22 22 21 21 21 22 23 24 24 25 24 21 20 20 20 20 20 22 23 22 22 22 21 22 22 22 21 20 21 21 20 19 18 18 18 17 16 15 14 12 11 9 11 12 12 12 12 11 12 11 9 8 6 5 5 6 7 7 7 8 9 9 9 10 11 11 12 12 12 12 13 12 12 11 11 11 11 11 11
23 19 17 20 23 25 25 24 24 24 23 24 26 25 25 26 25 22 21 21 22 23 23 24 23 23 22 21 20 21 21 22 21 21 21 21 21 21 20 19 18 17 16 15 13 12 11 10 11 12 12 13 12 11 12 11 9 8 7 6 6 6 6 7 7 8 8 9 9 10 11 12 12 13 13 12 13 13 13 13 12 12 12 11 12
23 21 20 20 22 24 25 26 26 27 27 27 26 25 25 26 26 23 23 23 24 25 25 25 25 24 23 21 21 21 21 22 21 20 19 20 22 22 21 19 18 18 16 15 13 12 11 11 12 13 13 13 12 11 12 12 9 9 9 7 7 7 7 7 8 8 8 8 9 10 10 11 12 13 13 13 13 13 13 13 13 13 12 12 13
23 22 22 21 21 21 23 25 27 28 28 27 25 25 26 27 27 26 24 24 25 25 25 26 26 25 23 21 20 20 21 23 22 20 19 21 22 22 21 19 18 18 17 15 14 13 12 12 13 13 13 12 11 11 12 11 10 9 10 9 8 7 7 8 10 10 9 8 8 9 10 11 12 12 13 13 13 13 13 14 14 13 13 13 13
22 22 21 20 20 19 21 22 23 26 27 25 24 25 27 28 29 28 27 27 26 25 25 25 26 25 24 21 19 19 21 23 24 23 22 23 24 23 21 20 19 18 17 17 16 14 13 14 14 13 12 12 11 11 11 11 10 10 10 10 9 7 6 8 10 11 10 9 9 8 9 9 10 11 12 12 12 12 13 13 13 13 13 13 12
21 19 19 19 20 20 20 18 17 22 24 21 20 23 27 29 29 28 28 28 26 24 23 24 25 25 23 20 18 18 20 23 24 24 24 24 25 25 22 21 20 19 18 18 17 16 15 15 14 13 12 12 11 11 11 10 10 10 11 11 10 8 7 7 9 10 10 9 9 8 8 8 9 9 10 10 11 11 11 12 12 12 12 12 11
20 17 17 19 19 19 20 17 14 15 16 15 15 17 21 25 26 24 24 25 24 22 22 23 25 25 23 21 19 18 19 22 23 23 23 24 27 26 23 22 21 20 19 19 18 18 17 15 14 12 12 11 11 11 11 10 10 10 11 12 11 10 9 8 8 9 9 9 9 8 8 8 8 8 9 9 9 10 10 10 11 11 11 10 10
17 14 15 18 18 18 19 19 16 13 13 14 13 11 11 13 15 16 19 22 22 22 22 23 25 25 24 21 20 19 19 21 21 22 22 25 28 27 23 22 21 20 20 20 20 20 18 16 14 12 12 11 11 12 11 10 10 10 11 11 11 10 9 8 8 8 8 8 8 8 8 8 8 8 8 9 9 9 9 9 10 10 10 10 9
17 12 13 15 17 17 17 18 16 14 14 13 11 9 7 7 9 12 16 19 20 21 22 23 23 23 23 21 20 19 18 18 19 20 21 24 28 25 22 22 22 21 21 21 21 20 18 16 15 13 12 12 12 12 11 10 10 10 11 11 10 9 8 8 8 8 8 8 8 8 8 8 8 8 9 9 9 9 9 9 9 9 9 8 8
17 13 12 13 14 15 15 15 14 13 13 11 8 6 6 6 8 11 13 15 17 20 21 22 21 21 21 20 19 18 17 17 18 20 21 24 26 24 22 23 22 21 21 21 21 20 18 17 16 14 12 12 12 12 11 11 10 11 11 11 10 9 9 9 9 8 7 7 8 8 7 8 8 8 9 9 10 9 9 9 8 7 7 6 5
16 14 12 12 13 13 13 13 10 9 11 10 5 2 5 8 9 11 12 13 16 18 18 19 20 20 20 19 19 18 18 18 18 20 22 24 26 24 23 23 23 22 21 21 21 21 19 18 16 14 13 12 12 12 12 11 11 11 12 12 12 11 10 10 10 9 8 7 8 8 7 7 7 8 8 8 9 8 7 7 6 6 5 5 5
15 14 12 12 13 13 14 13 10 9 12 14 10 3 6 11 12 12 12 14 16 17 17 16 17 18 19 20 19 19 19 20 19 20 23 25 26 25 24 23 22 22 22 22 22 21 20 18 17 15 14 13 13 13 12 11 11 11 12 12 13 12 11 11 11 10 8 8 8 8 8 7 8 7 7 7 7 6 6 5 5 5 5 5 5
14 13 13 13 14 14 14 15 14 13 15 19 18 14 11 15 17 15 13 14 16 18 18 16 16 16 19 21 21 19 20 22 21 20 21 23 23 23 23 22 22 22 23 23 23 22 20 19 17 15 14 13 13 13 13 12 12 12 12 12 12 12 12 11 11 10 9 8 9 8 8 8 7 7 7 7 6 5 5 5 5 5 5 5 5
13 13 13 13 14 14 14 14 16 17 18 19 19 18 16 17 18 17 15 14 15 17 19 18 18 18 20 22 21 21 21 22 22 20 19 19 19 20 21 21 22 22 23 23 23 22 20 19 17 15 14 13 13 14 14 14 13 12 12 13 13 12 12 11 11 10 9 9 9 9 8 8 7 7 7 7 6 5 5 5 5 4 4 4 5
12 12 12 13 13 14 14 15 16 18 18 18 16 16 17 18 18 18 17 14 14 16 18 20 20 21 22 22 21 20 20 21 22 21 20 19 19 19 20 20 20 21 22 22 23 22 21 19 17 15 13 14 15 16 16 15 15 13 13 14 13 12 12 11 11 11 10 9 9 9 8 8 7 7 7 7 6 5 5 5 5 4 4 5 5
12 12 12 12 13 13 14 15 17 19 20 20 19 19 19 18 18 19 19 16 14 15 18 21 23 24 24 22 20 20 20 22 23 21 20 19 19 19 20 20 19 20 22 23 22 22 20 19 17 16 13 15 18 18 17 17 16 14 13 14 14 13 12 11 11 12 11 10 9 9 9 8 8 8 8 7 7 6 6 5 5 4 4 5 6
13 13 12 13 14 15 16 17 19 21 23 24 24 23 20 19 19 20 21 19 16 15 17 20 23 25 24 21 18 20 21 22 22 20 19 19 18 20 21 21 20 20 22 23 22 22 21 19 18 17 17 19 20 19 18 18 17 15 15 15 15 13 12 11 12 12 11 11 10 10 9 9 9 9 8 8 8 7 6 6 5 5 5 5 6
15 15 14 14 15 17 18 20 22 24 25 25 25 24 21 19 21 22 23 22 18 16 17 20 23 25 24 20 18 20 21 20 19 19 20 21 20 20 22 22 21 21 23 23 22 21 21 20 19 19 20 21 21 20 19 18 17 16 16 15 14 13 12 12 12 12 12 12 12 11 10 10 10 9 9 9 8 7 7 6 6 6 6 6 7
18 19 18 18 18 20 22 24 24 25 26 25 25 23 21 21 22 24 25 23 20 17 17 20 23 25 24 22 21 20 19 18 19 20 21 23 22 21 22 22 22 23 24 25 24 22 22 21 20 20 21 22 22 21 19 19 18 17 16 15 14 13 13 12 12 13 13 13 13 12 11 11 11 10 10 10 9 8 7 7 8 7 6 7 7
20 22 22 22 22 22 24 26 25 25 25 24 23 23 23 23 24 26 26 26 24 20 19 20 22 24 24 24 23 21 19 18 19 20 22 24 23 23 23 23 23 24 25 26 26 24 23 22 21 21 22 24 23 21 20 19 18 17 16 15 15 15 14 14 13 13 13 14 14 12 11 11 12 12 12 11 10 9 8 8 9 8 8 8 7
22 23 22 20 21 23 23 24 23 23 23 23 23 23 24 25 26 27 28 27 26 24 23 22 22 24 24 25 24 21 20 19 19 20 22 24 25 26 25 23 23 24 25 27 26 25 24 23 23 22 23 24 24 22 21 20 18 17 17 17 17 16 16 15 14 13 14 14 14 13 12 12 13 13 13 12 11 11 9 10 10 10 9 9 8
22 22 21 19 20 23 22 23 23 22 22 22 22 24 26 27 29 30 29 28 27 27 26 23 23 24 24 25 25 22 21 21 20 20 21 23 26 28 27 25 25 24 25 27 26 25 25 24 23 23 23 24 24 23 22 20 19 19 18 18 17 17 17 15 14 14 14 14 15 14 12 12 14 15 14 14 13 12 11 11 12 11 11 10 10
22 21 21 20 22 24 23 23 23 22 21 20 20 23 26 29 32 32 29 28 28 28 28 27 26 25 23 24 23 20 20 21 21 21 21 23 25 28 28 26 26 26 26 27 26 25 25 25 24 24 24 25 25 24 22 21 21 21 19 18 18 17 16 15 15 14 14 14 14 14 12 12 14 15 15 14 14 13 12 13 13 12 12 11 11
21 21 22 22 24 25 25 26 25 21 19 20 22 24 27 29 33 32 28 29 31 29 28 27 27 26 24 23 21 19 20 21 22 22 22 24 25 27 27 26 26 26 26 27 27 24 25 26 25 25 25 25 25 24 23 22 22 22 20 19 18 17 17 16 16 15 14 14 14 14 13 12 15 17 16 15 15 14 14 14 14 13 13 12 12
22 21 21 21 23 25 26 27 26 20 17 21 25 27 29 29 32 32 29 29 32 31 29 27 26 26 25 24 22 19 19 20 22 23 23 24 25 26 28 27 27 27 26 27 26 23 26 28 26 25 26 25 24 24 24 23 23 22 20 19 18 18 17 16 16 14 14 14 14 15 15 14 17 19 17 16 15 15 15 15 14 13 13 13 12
24 23 21 22 24 25 27 26 24 24 23 26 29 31 33 32 33 34 31 30 32 32 32 30 28 27 26 26 24 21 20 21 22 23 23 24 26 29 31 31 30 29 28 29 26 25 28 30 27 25 26 26 25 25 25 24 23 22 20 19 19 18 17 17 16 15 15 15 16 17 17 17 18 20 19 17 17 16 15 15 15 14 14 13 13
Wind_Direction
297 298 295 296 298 300 300 299 300 301 302 304 306 308 311 313 314 315 317 319 321 324 329 336 339 338 337 339 341 343 344 345 346 346 348 349 350 352 358 1 1 360 358 355 352 351 347 345 347 350 351 351 350 348 347 345 344 345 347 352 354 355 355 355 358 1 1 13 25 26 25 20 18 7 356 15 37 57 67 68 74 75 69 66 60
294 294 294 295 296 297 297 297 298 300 301 303 305 307 309 310 310 311 313 315 318 323 330 335 337 336 335 337 339 341 342 343 345 346 347 348 348 352 358 1 360 358 354 351 349 349 345 346 348 350 352 353 350 346 346 346 346 347 349 354 357 359 359 356 353 357 5 15 24 26 27 29 34 33 24 26 34 49 60 69 71 69 66 64 62
292 293 294 294 294 294 293 294 296 298 299 300 302 303 304 304 305 306 308 312 316 323 329 333 334 333 333 335 337 339 340 341 343 345 345 345 347 351 357 360 359 356 350 348 347 347 345 347 349 351 354 354 349 346 345 345 347 351 355 356 358 2 2 359 354 359 7 10 19 26 29 34 43 50 48 49 52 61 68 70 67 66 66 66 64
294 294 294 293 291 290 289 290 292 294 295 295 297 298 298 299 300 301 305 309 313 321 327 329 330 330 330 332 335 337 338 340 341 343 344 343 346 350 356 359 357 353 347 346 346 346 346 347 349 352 355 353 350 347 346 348 353 358 359 0 3 5 3 3 359 0 6 12 19 26 34 39 50 62 67 75 81 81 79 74 71 72 72 71 67
295 294 293 290 288 287 287 288 289 290 291 291 292 293 294 294 296 298 301 305 311 318 323 326 327 326 326 329 333 335 337 338 339 341 342 341 344 349 355 357 355 350 345 344 344 344 345 347 349 352 353 352 350 349 350 354 359 1 3 8 12 12 9 7 4 4 10 19 24 29 36 46 62 76 94 110 111 104 96 90 87 85 81 75 70
295 292 290 287 285 286 286 286 286 287 288 289 289 290 290 291 293 295 297 301 308 315 320 323 323 322 322 327 331 333 334 335 336 338 339 338 341 347 352 353 352 348 344 344 343 343 344 346 349 351 350 349 351 354 358 360 2 5 8 17 20 19 17 14 12 15 21 27 30 30 33 45 69 88 108 115 114 111 106 102 97 91 85 78 74
294 291 289 287 287 287 286 285 285 286 286 286 286 286 286 287 288 291 293 298 304 310 316 318 318 317 319 325 329 330 331 333 333 335 336 335 338 345 350 350 349 346 344 344 342 341 342 345 349 349 347 348 352 357 1 2 6 10 17 24 23 22 19 16 18 28 37 38 37 34 38 51 72 93 108 111 110 110 109 107 102 96 88 83 79
293 292 291 290 288 287 285 283 284 283 283 283 282 282 283 284 285 287 289 293 299 306 311 314 314 314 317 323 326 326 327 329 330 332 332 331 335 343 347 345 345 344 344 345 342 341 340 343 348 346 344 347 352 357 359 2 9 15 22 26 24 22 16 14 20 42 56 54 49 44 47 57 68 86 98 104 108 112 114 111 103 94 88 84 82
294 295 293 291 288 285 282 281 281 280 280 280 280 281 281 282 280 281 284 289 296 302 306 309 310 311 315 319 321 321 322 325 327 329 329 328 333 341 343 339 340 342 345 345 343 340 338 340 345 343 343 346 350 355 358 2 8 15 20 23 23 20 14 12 20 50 67 63 55 47 44 50 56 68 91 105 114 119 117 111 100 91 86 84 83
298 297 294 290 286 282 279 278 277 277 278 278 278 279 278 277 275 276 281 287 293 297 302 304 305 307 311 314 315 316 318 321 325 327 326 324 328 337 338 333 336 341 345 346 344 339 336 337 339 341 344 347 348 352 358 2 3 6 10 14 17 15 12 14 27 63 76 72 61 51 46 47 51 70 116 130 135 136 129 122 112 103 95 89 85
300 298 294 290 284 280 277 276 275 275 276 275 275 274 273 273 272 274 279 284 288 293 297 298 299 301 305 309 310 312 315 319 323 324 322 319 323 333 334 326 330 340 345 347 344 339 334 333 334 338 345 348 348 352 357 356 352 354 358 3 6 4 6 13 41 84 85 83 73 61 53 49 56 128 168 170 169 166 160 153 145 133 117 98 86
298 296 294 289 283 279 276 273 272 272 272 271 271 270 269 269 270 272 276 280 284 288 290 291 292 296 301 305 307 309 313 316 319 319 317 315 318 328 329 320 326 338 344 346 344 338 333 331 329 333 343 348 349 354 355 349 348 352 356 359 358 352 353 7 41 96 93 89 85 78 71 57 233 229 215 207 203 199 194 189 181 169 152 132 106
297 295 293 288 283 278 275 272 269 268 268 267 266 265 265 266 268 270 272 275 280 283 284 286 289 294 300 302 304 307 311 313 315 313 312 311 314 323 324 315 322 334 341 344 342 337 332 328 326 330 339 346 349 354 352 349 355 356 357 357 351 343 341 354 3 115 105 96 99 107 127 202 236 240 237 232 229 224 221 219 215 213 215 221 234
298 295 292 289 283 278 277 274 271 268 265 263 263 263 262 263 265 267 269 272 276 279 281 284 289 296 299 300 303 306 307 309 310 309 308 308 310 318 318 311 319 330 337 342 340 335 331 326 323 327 336 342 346 351 349 348 354 352 353 351 343 338 334 335 291 170 122 118 127 150 169 196 225 238 241 239 238 237 237 238 237 236 236 238 243
297 294 290 287 283 279 278 276 271 267 263 260 261 260 258 259 261 263 266 270 274 277 280 286 293 297 297 298 301 303 304 305 306 305 304 303 306 312 312 306 314 324 331 337 336 334 330 324 321 324 331 338 342 347 343 339 346 346 347 345 338 334 328 313 269 228 167 145 162 186 188 198 217 229 237 240 241 241 241 242 243 243 243 244 246
294 292 288 285 281 275 273 271 267 262 258 256 255 255 254 255 256 260 265 269 272 276 281 289 294 295 295 296 298 299 300 301 302 302 300 300 302 307 305 301 309 317 324 330 331 331 328 323 318 321 327 332 338 344 339 330 338 341 339 337 334 332 323 300 269 247 223 199 206 211 211 219 220 223 231 236 239 241 243 243 244 246 247 249 250
291 289 285 281 275 269 266 263 258 254 250 247 247 248 248 250 254 258 263 267 271 278 286 292 293 292 292 293 295 296 296 298 299 298 296 296 299 302 297 294 303 310 316 321 325 327 326 320 314 318 323 325 334 342 333 320 332 336 329 330 330 328 316 291 268 254 246 236 233 230 226 227 222 221 227 233 238 243 246 248 249 250 253 253 253
289 288 284 278 271 264 259 255 250 246 242 241 242 243 245 248 252 255 260 267 276 284 289 289 287 288 289 290 292 293 294 295 296 294 293 294 296 298 290 287 297 305 308 312 318 323 322 316 311 314 317 318 326 340 328 315 327 331 322 322 321 319 310 289 267 252 245 245 246 241 234 230 225 221 222 227 234 241 248 251 253 254 255 257 258
289 288 284 278 270 262 256 251 246 242 239 239 240 242 244 245 248 254 262 272 280 284 283 283 284 285 286 288 289 290 291 292 292 289 289 290 289 291 286 283 292 298 300 304 311 318 319 313 309 310 312 311 317 336 322 305 316 322 316 314 310 307 301 283 265 253 242 243 244 240 235 232 229 224 222 223 228 236 243 248 252 254 256 259 261
290 288 283 277 270 264 257 250 244 241 238 237 237 239 241 244 250 258 267 273 275 276 277 279 281 282 284 287 288 288 289 290 289 285 284 283 280 281 282 281 286 289 292 299 306 312 314 308 305 306 306 306 310 323 312 293 299 303 306 305 301 297 292 276 259 248 240 239 240 239 237 234 232 228 225 226 228 232 239 244 248 252 255 259 263
293 290 286 280 273 264 255 247 244 243 241 241 243 247 252 257 263 267 270 272 273 275 277 279 281 282 284 286 286 286 287 288 286 282 281 276 271 272 274 275 281 283 287 295 302 306 307 302 300 300 299 301 304 310 302 286 285 286 289 289 289 288 284 274 258 245 237 236 237 240 240 238 236 232 229 229 231 234 238 243 246 250 253 258 264
294 294 292 285 275 263 253 248 248 248 250 255 260 265 268 269 268 268 271 273 275 277 278 280 281 282 283 282 282 283 286 287 284 280 277 270 261 262 264 269 276 280 283 291 296 299 300 295 293 294 294 296 298 300 296 285 275 276 279 271 272 274 273 270 264 253 242 237 235 237 238 239 240 239 235 233 233 236 239 242 246 249 253 256 260
294 295 293 288 278 268 260 254 253 254 259 262 265 266 264 263 263 266 271 273 274 276 278 280 280 281 280 278 277 280 283 284 280 275 271 263 256 254 256 263 270 274 279 286 291 292 291 288 286 287 288 290 290 292 292 288 279 271 271 266 264 264 264 267 268 264 256 247 239 237 237 238 240 242 242 240 238 238 240 242 246 249 253 256 260
300 296 289 285 279 270 264 257 253 255 257 259 260 260 260 260 263 268 273 273 274 275 278 279 280 281 279 274 272 276 281 282 276 268 263 257 254 252 253 261 267 270 276 283 286 286 284 279 277 279 281 284 284 285 287 287 285 276 271 265 265 267 266 268 272 274 270 262 252 246 242 241 242 244 245 246 245 243 244 245 248 251 254 258 263
304 302 289 280 275 268 263 256 251 252 254 257 260 262 264 265 268 272 274 274 273 273 278 280 279 280 279 272 269 273 279 279 271 262 256 252 251 248 249 260 265 267 273 280 282 280 276 269 268 270 273 277 279 281 282 282 284 282 277 264 263 272 277 278 281 283 282 276 268 261 256 252 250 248 249 251 251 250 250 251 253 255 258 262 267
298 304 294 284 277 271 264 258 253 252 253 257 261 264 268 270 272 274 274 272 268 268 277 281 280 279 278 273 269 271 276 277 269 262 256 250 249 247 248 258 262 264 271 277 278 273 265 258 259 262 265 269 272 277 278 278 281 282 280 265 252 265 281 289 293 292 288 285 279 273 268 265 262 259 257 257 258 259 259 261 262 263 266 269 273
291 292 293 290 285 276 270 265 258 253 251 254 259 264 269 272 274 275 273 272 269 271 278 282 279 277 277 274 268 267 270 273 267 263 258 249 249 248 250 258 260 262 269 273 272 264 254 249 252 256 259 262 265 270 273 273 274 277 278 268 249 251 269 287 299 301 294 290 285 278 273 269 268 267 266 266 266 267 268 269 270 272 275 278 280
287 285 282 284 286 281 276 273 268 263 260 262 268 273 278 278 276 273 271 270 271 273 278 279 277 276 276 273 269 266 266 264 261 262 257 250 248 246 251 258 257 260 266 268 264 255 249 247 249 251 255 258 260 264 266 266 266 270 274 271 260 252 258 273 290 302 299 292 286 279 273 270 268 268 269 271 273 275 276 276 278 280 282 284 286
285 285 281 276 276 277 275 274 276 275 273 274 280 284 285 285 283 278 273 272 271 271 273 274 274 274 273 270 268 269 267 260 257 261 258 252 248 245 253 257 253 258 263 263 258 252 250 248 249 251 255 258 260 261 260 260 260 262 268 268 267 263 260 262 271 285 295 292 284 276 271 270 269 269 269 270 272 275 278 280 281 282 283 284 285
282 282 280 273 270 271 272 275 280 278 276 280 285 284 281 280 279 277 275 274 271 270 272 272 271 270 269 268 267 268 267 261 257 259 256 250 247 249 257 255 251 255 260 262 256 252 251 250 251 252 257 258 259 260 252 252 256 259 263 264 266 269 267 262 261 269 282 286 279 272 268 268 268 268 267 267 268 270 273 276 277 278 279 279 281
283 280 272 266 267 268 269 276 279 272 274 282 287 284 278 274 275 275 275 274 271 271 272 271 270 269 268 267 266 264 265 263 260 259 256 252 252 255 257 251 249 253 258 261 256 253 251 250 252 253 255 256 258 257 245 244 252 258 262 263 265 268 270 265 259 261 268 272 271 269 267 266 266 265 265 264 264 265 267 270 273 275 276 278 281
286 280 266 259 263 264 265 267 267 267 273 282 286 288 283 277 276 279 278 274 272 272 272 271 270 270 269 267 266 264 263 265 264 261 259 260 257 254 250 246 247 251 256 259 256 252 250 250 252 253 254 257 259 254 241 239 248 255 257 261 263 264 267 265 261 259 260 263 264 266 267 265 265 265 265 264 263 264 265 268 271 275 279 282 285
287 281 269 261 261 265 265 263 261 263 269 275 280 290 296 288 282 283 281 276 274 273 272 271 272 272 270 267 265 265 263 265 267 265 263 264 259 250 243 241 243 248 253 256 255 251 250 252 253 252 253 256 257 249 239 238 245 251 252 255 260 261 264 263 262 261 258 259 259 260 260 260 261 262 262 263 263 264 266 268 271 277 284 287 289
286 279 270 264 263 263 262 260 258 257 259 264 271 284 308 309 290 282 279 277 277 275 273 273 274 274 272 269 267 265 265 267 270 269 265 265 263 253 240 238 240 245 250 253 252 250 252 254 252 251 251 252 252 244 237 239 243 246 247 248 252 258 261 260 260 259 256 255 254 254 253 254 256 258 258 257 260 263 266 269 274 281 287 289 292
285 279 271 265 264 263 260 258 258 257 252 251 260 289 317 308 283 276 276 279 279 278 277 277 276 277 273 269 267 265 263 266 269 269 265 264 266 257 241 237 240 243 248 251 250 249 252 253 252 250 249 249 246 237 235 240 242 241 242 241 246 254 258 255 255 254 253 252 254 255 253 254 257 256 255 254 257 262 265 270 276 283 288 291 297
285 282 277 270 268 269 266 261 263 257 235 229 238 324 337 309 286 280 283 285 283 282 281 279 279 277 269 262 264 264 259 262 268 269 267 264 262 255 244 240 243 245 249 250 246 247 251 253 252 250 247 247 241 233 234 238 237 236 237 238 242 249 253 253 251 251 252 256 263 264 262 261 260 258 256 256 258 262 265 268 274 279 284 292 300
288 286 284 279 275 274 269 258 253 244 223 223 234 260 327 314 302 295 294 293 288 284 282 282 281 272 259 254 261 264 260 264 270 271 268 264 259 253 245 241 244 248 251 250 243 243 251 252 250 248 247 245 237 230 233 235 232 231 235 237 239 243 249 250 248 251 254 261 268 268 266 263 262 263 261 259 260 261 265 265 268 273 278 287 293
290 291 290 288 285 283 278 261 246 241 235 236 245 256 285 305 307 305 301 296 291 286 282 280 279 269 257 254 261 268 269 270 272 275 271 263 255 247 240 240 244 248 251 250 242 241 248 250 247 246 246 244 236 230 230 230 228 230 233 237 237 239 246 248 247 250 255 262 267 265 263 263 266 270 267 263 262 261 264 263 264 271 278 284 287
293 297 297 292 289 288 289 276 255 246 247 250 254 261 275 293 302 303 300 296 292 288 283 278 274 268 261 260 266 272 274 274 273 275 270 256 247 241 238 241 244 246 248 245 240 240 244 245 245 244 244 243 234 230 229 225 226 230 231 234 236 239 244 246 246 247 251 255 260 262 262 266 272 276 271 264 261 260 261 262 266 275 283 288 286
295 297 298 294 289 286 288 285 269 257 255 259 264 270 278 285 291 295 295 293 289 286 282 278 273 268 265 265 267 268 270 273 274 273 262 247 241 240 240 242 242 241 241 237 236 240 241 240 242 240 240 245 236 227 226 223 223 226 228 232 234 236 240 241 243 245 248 251 256 259 262 266 273 275 270 264 261 264 266 267 274 285 295 298 294
296 293 289 285 283 280 278 276 271 263 259 263 270 275 276 277 280 286 289 288 286 284 280 276 273 271 268 266 266 267 270 272 271 266 256 246 243 242 241 244 240 234 233 233 233 237 239 237 239 236 229 238 236 226 224 222 222 225 228 232 233 236 240 239 241 246 248 251 255 259 263 267 272 272 269 265 264 270 273 272 280 291 298 299 296
292 287 281 276 273 269 264 261 260 259 259 262 268 271 272 271 271 276 280 281 281 281 279 275 273 272 271 270 270 268 271 272 267 259 249 244 245 244 243 246 243 234 230 231 230 233 239 239 240 237 225 228 230 225 224 224 222 226 229 232 234 238 242 239 241 247 250 252 255 258 262 267 269 271 272 268 267 270 271 273 281 287 289 289 290
287 285 280 272 264 258 255 252 252 253 256 261 263 266 266 264 263 266 271 274 275 276 277 275 272 271 271 270 268 264 266 267 259 249 242 239 243 245 244 245 244 237 230 229 227 231 240 243 242 241 234 229 226 222 224 225 224 227 230 233 238 243 246 246 247 249 248 250 255 258 262 265 265 269 271 269 268 267 268 273 277 277 277 279 284
281 282 278 272 261 252 247 245 246 248 250 253 256 259 259 255 255 259 262 266 267 267 270 272 270 269 268 265 262 260 262 263 255 246 240 238 241 246 247 245 242 237 232 229 229 233 242 246 243 242 239 231 224 221 223 224 225 229 233 237 241 244 247 249 252 253 252 253 257 259 262 264 263 265 267 266 267 268 267 269 269 267 267 270 276
279 277 276 275 270 261 252 245 245 249 251 252 253 254 256 255 255 257 260 262 262 259 258 262 265 266 266 263 260 257 257 260 257 248 243 241 243 249 252 249 244 238 234 233 233 237 242 244 243 242 238 230 223 221 223 225 226 230 235 239 242 243 244 244 246 249 252 256 258 260 262 263 262 264 265 265 267 268 269 267 264 260 259 264 270
288 285 286 286 282 281 277 266 261 260 260 260 257 257 258 258 259 259 259 260 261 259 255 252 257 263 265 263 262 260 255 255 256 250 246 243 245 251 252 249 247 240 234 234 236 240 241 241 243 240 234 227 222 220 223 225 226 229 234 238 242 244 245 245 246 247 250 254 257 257 258 261 261 262 264 266 265 265 266 263 258 254 255 260 266
294 297 303 304 295 290 286 280 278 274 270 267 268 269 268 267 267 263 260 261 264 265 262 255 254 257 261 264 264 262 257 253 254 254 251 247 247 251 248 245 245 239 231 231 233 239 241 240 241 239 230 224 223 221 222 225 227 230 233 237 241 244 247 250 251 253 256 259 263 264 264 264 263 262 263 264 263 261 259 256 253 251 254 259 265
293 298 302 303 297 287 278 274 273 269 266 268 273 275 275 276 274 271 272 274 268 264 263 261 258 258 258 261 263 261 257 254 253 256 257 253 250 250 245 241 242 240 233 230 229 234 240 238 239 238 229 223 225 223 223 225 227 230 234 238 241 243 247 253 255 257 261 267 272 274 271 267 265 264 262 262 260 258 254 251 250 250 254 259 266
291 295 296 299 299 289 278 273 268 261 262 265 270 277 279 279 275 275 284 285 273 262 261 261 258 258 259 261 263 260 255 254 251 252 255 252 251 250 243 237 240 240 235 231 228 231 237 237 236 236 230 225 226 226 224 225 227 231 236 239 241 243 246 251 255 259 266 271 274 274 270 264 262 261 259 258 257 255 252 251 250 251 255 262 270
286 289 293 296 298 291 281 276 266 259 270 276 277 282 282 282 281 280 283 286 279 268 262 261 256 255 258 259 259 257 253 250 248 250 252 249 249 248 238 234 237 236 232 230 229 229 235 236 234 234 232 229 229 230 228 227 228 232 237 240 241 242 246 250 254 259 264 268 269 268 265 259 257 259 259 258 257 255 253 252 251 253 258 266 272
282 285 287 286 288 288 286 283 267 256 270 282 284 282 277 279 287 286 280 279 279 269 259 259 256 254 256 255 252 251 252 253 250 250 250 248 250 249 239 235 236 231 227 229 228 228 234 235 232 232 232 231 231 232 232 230 230 234 238 241 242 241 245 250 252 255 260 264 265 266 264 260 259 261 262 261 259 257 254 254 254 257 262 270 272
Height
5873 5873 5872 5872 5872 5871 5871 5871 5870 5869 5869 5868 5867 5866 5866 5865 5865 5865 5865 5865 5865 5865 5865 5865 5865 5865 5864 5863 5862 5861 5860 5859 5859 5858 5857 5856 5855 5854 5853 5853 5852 5852 5851 5850 5849 5848 5847 5847 5846 5845 5844 5843 5842 5841 5840 5839 5837 5836 5835 5835 5834 5833 5832 5832 5831 5831 5831 5830 5830 5830 5830 5830 5829 5829 5828 5828 5829 5831 5832 5833 5833 5833 5833 5832 5832
5872 5872 5871 5871 5871 5870 5870 5869 5868 5868 5867 5867 5866 5865 5865 5864 5864 5864 5864 5865 5865 5865 5865 5865 5865 5864 5864 5863 5862 5861 5860 5859 5858 5857 5857 5856 5855 5854 5854 5853 5853 5852 5851 5850 5849 5848 5847 5847 5846 5845 5844 5843 5842 5841 5840 5839 5838 5837 5835 5835 5834 5834 5833 5832 5831 5831 5831 5829 5829 5830 5830 5831 5831 5831 5830 5830 5830 5831 5832 5833 5833 5833 5832 5832 5832
5871 5871 5870 5870 5869 5869 5868 5867 5867 5866 5866 5865 5865 5864 5864 5864 5864 5864 5864 5864 5864 5864 5864 5864 5864 5864 5863 5862 5861 5861 5860 5859 5858 5857 5856 5855 5854 5854 5854 5853 5853 5852 5851 5850 5849 5848 5847 5846 5846 5845 5844 5843 5842 5842 5841 5840 5838 5837 5836 5835 5834 5833 5833 5833 5832 5831 5830 5829 5830 5831 5832 5832 5832 5832 5832 5831 5831 5831 5832 5832 5832 5832 5832 5833 5833
5869 5869 5869 5868 5868 5867 5866 5866 5866 5865 5865 5864 5864 5864 5863 5863 5863 5863 5863 5863 5863 5863 5863 5863 5863 5863 5862 5862 5861 5860 5860 5859 5858 5857 5856 5855 5854 5854 5854 5853 5853 5852 5851 5850 5849 5848 5847 5846 5846 5845 5844 5843 5842 5841 5840 5840 5839 5838 5837 5836 5834 5834 5833 5833 5833 5831 5831 5831 5831 5832 5832 5833 5833 5833 5833 5833 5833 5833 5833 5833 5833 5833 5833 5833 5833
5868 5867 5867 5867 5866 5865 5865 5865 5864 5864 5864 5863 5863 5863 5863 5862 5863 5863 5863 5863 5863 5863 5863 5863 5863 5862 5861 5861 5860 5860 5859 5858 5857 5856 5856 5854 5854 5854 5854 5853 5853 5852 5851 5850 5849 5848 5847 5846 5846 5845 5844 5843 5842 5842 5841 5840 5839 5838 5837 5837 5836 5835 5834 5834 5834 5833 5832 5832 5832 5833 5833 5833 5834 5834 5834 5834 5834 5834 5834 5834 5834 5834 5834 5834 5834
5866 5866 5866 5865 5865 5864 5864 5863 5863 5862 5862 5862 5862 5862 5862 5862 5862 5862 5862 5862 5862 5862 5862 5862 5862 5861 5860 5860 5860 5859 5859 5858 5857 5856 5855 5854 5854 5854 5854 5853 5853 5853 5852 5850 5849 5848 5847 5846 5846 5845 5844 5843 5843 5842 5841 5840 5839 5839 5838 5837 5836 5836 5835 5835 5834 5834 5833 5833 5833 5833 5833 5833 5834 5834 5835 5835 5835 5835 5834 5834 5834 5834 5834 5834 5834
5865 5864 5864 5864 5863 5863 5862 5862 5861 5861 5861 5861 5861 5861 5861 5861 5861 5861 5861 5861 5861 5861 5861 5861 5861 5860 5860 5859 5859 5859 5858 5857 5856 5855 5855 5854 5854 5854 5854 5853 5853 5852 5852 5850 5849 5848 5847 5846 5846 5845 5844 5843 5843 5842 5841 5840 5840 5839 5838 5838 5837 5837 5836 5836 5835 5835 5834 5834 5834 5833 5833 5834 5834 5834 5834 5834 5834 5834 5834 5834 5834 5834 5834 5834 5834
5863 5863 5863 5862 5862 5862 5861 5861 5860 5860 5860 5860 5860 5860 5860 5860 5860 5860 5860 5860 5860 5860 5861 5861 5860 5860 5859 5859 5858 5858 5857 5857 5856 5855 5854 5854 5854 5854 5854 5853 5853 5852 5852 5851 5849 5848 5847 5846 5846 5845 5844 5843 5843 5842 5841 5840 5840 5839 5839 5838 5838 5837 5837 5836 5836 5835 5835 5835 5834 5834 5834 5834 5834 5834 5834 5834 5834 5834 5834 5835 5835 5834 5834 5834 5835
5861 5861 5861 5861 5861 5860 5860 5859 5859 5859 5859 5859 5859 5859 5859 5860 5860 5859 5859 5859 5859 5860 5860 5860 5860 5859 5858 5858 5858 5857 5857 5856 5856 5855 5854 5853 5854 5854 5853 5853 5852 5852 5852 5851 5850 5848 5847 5846 5846 5845 5844 5843 5842 5842 5841 5840 5840 5839 5839 5839 5838 5838 5837 5837 5836 5836 5835 5835 5835 5834 5834 5834 5834 5834 5834 5834 5834 5835 5835 5835 5835 5835 5835 5835 5835
5859 5859 5859 5859 5859 5859 5858 5858 5858 5857 5857 5858 5858 5858 5858 5859 5859 5858 5858 5859 5859 5859 5859 5859 5859 5858 5857 5857 5857 5857 5856 5856 5855 5854 5853 5852 5853 5854 5853 5852 5852 5852 5852 5851 5850 5848 5846 5846 5845 5845 5844 5843 5842 5841 5841 5840 5840 5839 5839 5839 5838 5838 5838 5837 5837 5836 5835 5835 5835 5835 5835 5835 5835 5835 5835 5835 5835 5835 5835 5835 5835 5835 5835 5835 5836
5857 5857 5858 5858 5857 5857 5857 5856 5856 5856 5856 5856 5857 5857 5857 5857 5857 5857 5858 5858 5858 5858 5858 5858 5858 5857 5857 5856 5856 5856 5855 5855 5854 5854 5853 5852 5853 5853 5853 5852 5852 5852 5852 5851 5850 5848 5847 5845 5845 5845 5845 5844 5842 5841 5841 5840 5840 5840 5839 5839 5838 5838 5838 5838 5837 5837 5836 5835 5835 5835 5835 5835 5835 5835 5835 5835 5835 5835 5835 5835 5835 5836 5836 5836 5836
5855 5855 5856 5856 5855 5855 5855 5855 5855 5855 5855 5855 5855 5856 5856 5856 5856 5857 5857 5857 5857 5857 5857 5857 5857 5856 5856 5856 5855 5855 5854 5854 5854 5853 5852 5851 5852 5853 5852 5851 5851 5851 5851 5851 5850 5849 5847 5845 5844 5845 5845 5844 5843 5842 5841 5841 5840 5840 5839 5838 5838 5838 5838 5838 5837 5837 5836 5836 5836 5836 5836 5836 5836 5836 5836 5836 5836 5836 5836 5836 5836 5836 5836 5836 5837
5854 5854 5854 5854 5853 5853 5853 5853 5853 5853 5853 5853 5854 5854 5855 5855 5855 5856 5856 5856 5856 5856 5856 5856 5856 5856 5855 5855 5854 5854 5854 5853 5853 5852 5851 5851 5851 5851 5851 5850 5851 5851 5851 5851 5850 5849 5847 5845 5844 5844 5844 5843 5843 5842 5841 5841 5840 5840 5839 5838 5838 5838 5838 5838 5837 5837 5836 5836 5836 5836 5836 5836 5836 5837 5837 5837 5837 5836 5836 5836 5836 5836 5836 5837 5837
5852 5852 5852 5852 5852 5851 5851 5851 5851 5851 5852 5852 5853 5853 5853 5854 5854 5854 5854 5854 5855 5855 5855 5855 5855 5855 5854 5854 5853 5853 5853 5853 5852 5851 5850 5850 5849 5850 5850 5849 5850 5850 5850 5850 5850 5848 5847 5846 5844 5844 5843 5842 5842 5842 5841 5841 5840 5840 5839 5838 5838 5838 5838 5838 5837 5837 5837 5836 5836 5836 5836 5836 5837 5837 5837 5837 5837 5837 5837 5837 5837 5837 5837 5837 5837
5851 5851 5850 5850 5850 5850 5849 5850 5850 5850 5851 5851 5851 5852 5852 5852 5852 5853 5853 5853 5853 5854 5854 5854 5853 5853 5853 5852 5852 5852 5852 5852 5851 5850 5849 5848 5848 5849 5848 5848 5849 5849 5850 5850 5849 5848 5847 5846 5844 5844 5843 5842 5842 5841 5841 5841 5840 5840 5839 5838 5838 5838 5838 5838 5838 5837 5837 5836 5836 5836 5836 5836 5836 5837 5837 5837 5837 5837 5837 5837 5837 5837 5837 5837 5837
5849 5849 5849 5849 5848 5848 5848 5848 5849 5849 5849 5850 5850 5850 5850 5850 5851 5851 5852 5852 5852 5852 5852 5852 5852 5852 5852 5851 5851 5851 5851 5851 5850 5849 5848 5847 5847 5848 5847 5847 5848 5848 5849 5849 5849 5848 5847 5845 5844 5844 5843 5842 5842 5841 5841 5841 5840 5840 5839 5838 5838 5838 5838 5838 5838 5837 5837 5837 5837 5837 5837 5836 5836 5836 5836 5837 5837 5837 5837 5837 5836 5836 5836 5836 5836
5847 5847 5847 5847 5847 5847 5847 5847 5847 5847 5847 5847 5848 5848 5848 5849 5849 5850 5851 5851 5851 5851 5851 5851 5850 5850 5850 5850 5850 5850 5849 5849 5849 5848 5846 5846 5846 5846 5846 5845 5846 5847 5848 5849 5848 5847 5846 5845 5844 5844 5843 5842 5842 5841 5841 5841 5841 5840 5839 5839 5838 5838 5838 5838 5838 5838 5837 5837 5837 5837 5837 5837 5836 5836 5836 5836 5836 5837 5837 5836 5836 5836 5836 5836 5836
5846 5845 5846 5845 5845 5845 5845 5845 5845 5845 5845 5845 5846 5846 5847 5847 5848 5849 5849 5849 5849 5849 5849 5849 5849 5849 5849 5848 5848 5848 5848 5847 5847 5846 5845 5844 5845 5845 5845 5844 5845 5846 5847 5848 5848 5847 5846 5845 5844 5843 5843 5842 5842 5841 5841 5841 5840 5840 5839 5838 5838 5838 5838 5838 5838 5838 5838 5837 5837 5837 5837 5837 5836 5836 5836 5836 5836 5836 5836 5836 5836 5836 5836 5836 5835
5844 5844 5844 5843 5843 5843 5843 5842 5842 5842 5843 5843 5844 5844 5845 5846 5846 5847 5847 5847 5847 5847 5847 5847 5847 5847 5847 5847 5847 5846 5846 5845 5845 5844 5843 5842 5843 5844 5844 5844 5844 5845 5846 5846 5847 5847 5846 5844 5843 5843 5843 5842 5841 5842 5841 5840 5840 5839 5839 5838 5838 5838 5838 5838 5838 5838 5837 5837 5837 5837 5837 5837 5837 5836 5836 5836 5836 5836 5836 5836 5836 5836 5835 5835 5835
5842 5842 5842 5841 5841 5841 5840 5840 5840 5840 5841 5841 5842 5842 5843 5844 5844 5845 5845 5845 5845 5845 5845 5845 5845 5845 5845 5845 5844 5844 5844 5844 5843 5842 5841 5841 5841 5842 5843 5843 5843 5844 5845 5845 5846 5846 5845 5844 5843 5842 5842 5841 5841 5841 5841 5840 5840 5839 5839 5838 5838 5838 5838 5838 5838 5838 5837 5837 5837 5837 5837 5837 5837 5836 5836 5836 5835 5835 5835 5835 5835 5835 5835 5835 5835
5840 5840 5839 5839 5839 5838 5838 5837 5838 5838 5839 5840 5840 5841 5842 5842 5842 5843 5843 5843 5843 5843 5843 5843 5843 5843 5843 5843 5842 5842 5842 5842 5842 5840 5840 5839 5840 5841 5842 5842 5842 5843 5843 5844 5844 5845 5845 5843 5842 5841 5841 5841 5840 5840 5840 5840 5840 5839 5839 5838 5838 5838 5838 5838 5837 5837 5837 5837 5837 5837 5837 5837 5837 5836 5836 5835 5835 5835 5835 5835 5835 5835 5835 5835 5835
5837 5837 5837 5837 5837 5836 5836 5836 5836 5837 5838 5839 5840 5840 5840 5841 5841 5841 5842 5841 5841 5841 5841 5841 5841 5840 5840 5840 5840 5840 5840 5840 5839 5839 5838 5837 5838 5839 5840 5841 5841 5841 5842 5842 5843 5844 5844 5842 5841 5840 5840 5841 5840 5839 5839 5839 5839 5839 5838 5838 5838 5838 5838 5837 5837 5837 5837 5837 5837 5837 5837 5837 5837 5837 5836 5835 5835 5835 5835 5835 5835 5835 5834 5834 5834
5835 5835 5835 5835 5835 5834 5835 5835 5835 5836 5837 5838 5838 5838 5839 5839 5839 5840 5840 5839 5839 5839 5839 5838 5838 5837 5837 5838 5837 5837 5838 5838 5837 5837 5836 5836 5836 5837 5838 5839 5839 5840 5840 5841 5842 5843 5843 5841 5840 5840 5839 5840 5839 5838 5838 5838 5838 5838 5838 5838 5838 5838 5838 5837 5837 5837 5837 5837 5837 5837 5837 5837 5837 5837 5836 5836 5835 5835 5834 5834 5834 5834 5834 5834 5834
5834 5834 5833 5833 5832 5833 5833 5834 5835 5835 5836 5836 5836 5837 5837 5837 5837 5838 5838 5837 5837 5836 5836 5835 5835 5835 5835 5835 5835 5835 5836 5836 5835 5835 5834 5834 5834 5835 5836 5837 5837 5838 5839 5839 5840 5841 5841 5841 5840 5839 5838 5839 5838 5837 5837 5837 5837 5837 5837 5838 5838 5838 5838 5838 5837 5837 5837 5837 5837 5837 5837 5836 5836 5836 5836 5836 5835 5835 5834 5834 5834 5834 5833 5833 5833
5833 5833 5832 5831 5831 5831 5832 5833 5833 5834 5834 5835 5835 5835 5836 5836 5836 5836 5836 5836 5835 5834 5834 5833 5833 5833 5832 5833 5833 5834 5834 5834 5833 5833 5833 5833 5833 5834 5835 5835 5835 5836 5837 5838 5839 5840 5840 5839 5839 5838 5837 5837 5837 5836 5836 5836 5836 5836 5837 5837 5838 5838 5838 5838 5838 5837 5837 5837 5837 5837 5837 5837 5836 5836 5836 5836 5835 5835 5834 5834 5834 5833 5833 5833 5833
5830 5830 5830 5830 5830 5831 5830 5831 5831 5832 5833 5833 5834 5834 5834 5834 5835 5835 5835 5834 5833 5833 5832 5832 5832 5831 5830 5831 5831 5832 5832 5832 5832 5832 5832 5832 5832 5832 5833 5834 5834 5834 5835 5836 5837 5838 5838 5838 5837 5837 5836 5836 5836 5836 5835 5835 5835 5835 5836 5837 5837 5837 5837 5837 5837 5837 5837 5837 5836 5836 5836 5836 5836 5836 5836 5836 5835 5835 5835 5834 5834 5833 5833 5833 5832
5828 5828 5829 5829 5829 5829 5829 5829 5829 5830 5830 5831 5831 5832 5833 5833 5833 5833 5833 5833 5832 5831 5832 5831 5830 5829 5829 5829 5829 5830 5830 5831 5831 5831 5831 5831 5831 5831 5832 5832 5832 5832 5833 5834 5835 5836 5837 5837 5836 5836 5835 5835 5835 5835 5834 5834 5834 5834 5835 5836 5837 5837 5837 5837 5837 5837 5836 5836 5836 5836 5836 5836 5835 5835 5835 5835 5835 5835 5835 5834 5834 5833 5833 5832 5832
5826 5826 5826 5827 5827 5827 5827 5827 5827 5827 5828 5829 5830 5831 5831 5831 5831 5831 5831 5831 5830 5830 5830 5830 5829 5828 5827 5827 5827 5828 5829 5829 5830 5830 5830 5830 5830 5830 5830 5831 5831 5831 5831 5832 5833 5835 5835 5835 5834 5834 5834 5834 5835 5835 5834 5833 5834 5834 5834 5835 5836 5836 5837 5837 5837 5836 5836 5836 5836 5836 5835 5835 5835 5834 5834 5834 5834 5834 5834 5834 5833 5833 5832 5832 5831
5823 5824 5824 5824 5824 5825 5825 5825 5825 5826 5827 5828 5829 5830 5829 5829 5829 5830 5830 5829 5828 5827 5827 5827 5827 5826 5825 5825 5825 5826 5826 5827 5828 5828 5829 5828 5828 5829 5829 5829 5830 5830 5830 5830 5832 5833 5833 5833 5833 5833 5833 5833 5834 5834 5833 5833 5833 5833 5834 5834 5835 5836 5836 5836 5836 5836 5835 5835 5835 5835 5834 5834 5834 5834 5834 5834 5834 5833 5833 5833 5833 5832 5831 5831 5830
5821 5822 5822 5822 5822 5823 5823 5823 5824 5825 5826 5827 5828 5827 5826 5827 5827 5827 5828 5827 5826 5825 5825 5825 5825 5824 5823 5823 5823 5824 5824 5825 5826 5826 5827 5827 5827 5827 5828 5828 5828 5828 5828 5829 5830 5831 5831 5831 5831 5832 5832 5832 5833 5833 5833 5832 5832 5832 5833 5834 5834 5835 5835 5835 5835 5835 5835 5834 5834 5834 5834 5834 5834 5834 5833 5833 5833 5833 5832 5832 5832 5831 5831 5830 5829
5820 5821 5820 5820 5820 5821 5821 5821 5822 5823 5824 5825 5825 5825 5824 5824 5824 5824 5825 5825 5824 5823 5822 5823 5823 5822 5822 5821 5822 5822 5822 5823 5824 5824 5825 5825 5825 5826 5826 5826 5826 5827 5827 5827 5828 5828 5829 5829 5830 5830 5831 5831 5831 5832 5832 5831 5831 5831 5832 5833 5833 5834 5834 5834 5834 5834 5834 5833 5833 5833 5833 5833 5833 5833 5833 5833 5832 5832 5832 5831 5831 5830 5830 5829 5829
5818 5818 5818 5818 5818 5819 5819 5820 5821 5821 5822 5823 5823 5822 5821 5821 5821 5822 5822 5822 5822 5821 5820 5820 5820 5820 5820 5820 5820 5820 5820 5821 5822 5823 5823 5823 5823 5823 5823 5824 5824 5825 5825 5826 5826 5826 5827 5827 5828 5829 5829 5829 5830 5830 5831 5830 5830 5831 5831 5832 5833 5833 5833 5833 5833 5833 5833 5832 5832 5832 5832 5832 5832 5832 5832 5832 5831 5831 5831 5830 5830 5830 5829 5829 5828
5816 5816 5816 5816 5817 5817 5817 5818 5819 5820 5820 5820 5821 5820 5820 5819 5819 5820 5821 5821 5820 5819 5818 5817 5818 5818 5819 5819 5818 5818 5819 5819 5820 5820 5821 5822 5821 5821 5821 5822 5822 5823 5823 5824 5824 5824 5825 5825 5826 5827 5828 5828 5829 5829 5829 5829 5829 5830 5831 5831 5832 5832 5832 5832 5832 5832 5832 5831 5831 5831 5831 5831 5831 5831 5831 5831 5831 5830 5830 5830 5829 5829 5829 5829 5828
5814 5814 5815 5815 5815 5816 5816 5816 5817 5818 5818 5819 5819 5819 5818 5817 5817 5818 5819 5820 5819 5817 5816 5816 5816 5816 5817 5817 5817 5817 5817 5817 5817 5818 5819 5819 5819 5820 5820 5820 5820 5820 5822 5822 5823 5823 5823 5824 5824 5825 5826 5826 5827 5828 5828 5828 5828 5829 5830 5830 5831 5831 5831 5831 5831 5831 5831 5830 5830 5830 5830 5830 5830 5830 5830 5830 5830 5829 5829 5829 5829 5828 5829 5828 5828
5811 5812 5813 5813 5814 5814 5814 5814 5815 5815 5816 5817 5818 5817 5816 5816 5816 5817 5818 5817 5816 5815 5814 5814 5813 5813 5814 5815 5815 5816 5816 5815 5815 5815 5816 5817 5817 5818 5818 5818 5818 5819 5820 5821 5821 5821 5822 5822 5823 5824 5824 5825 5826 5826 5826 5826 5827 5828 5828 5829 5830 5830 5830 5830 5830 5830 5830 5829 5829 5829 5829 5829 5829 5829 5829 5829 5829 5829 5829 5829 5828 5828 5828 5828 5828
5809 5809 5811 5812 5812 5812 5812 5812 5813 5814 5814 5815 5815 5815 5815 5815 5816 5816 5816 5815 5814 5813 5812 5811 5811 5811 5811 5812 5812 5813 5813 5813 5813 5813 5813 5814 5814 5816 5816 5816 5816 5817 5818 5819 5819 5820 5821 5821 5822 5822 5823 5823 5824 5824 5825 5825 5825 5826 5827 5828 5829 5829 5829 5829 5830 5829 5829 5829 5829 5829 5828 5828 5828 5828 5828 5828 5828 5828 5828 5828 5828 5828 5828 5828 5828
5807 5808 5809 5810 5810 5811 5811 5811 5812 5812 5813 5813 5813 5813 5814 5815 5816 5815 5814 5813 5812 5812 5811 5810 5809 5809 5809 5809 5810 5810 5810 5810 5810 5810 5811 5811 5811 5812 5814 5815 5815 5816 5817 5818 5818 5819 5819 5820 5820 5821 5821 5822 5823 5823 5823 5823 5824 5825 5826 5827 5828 5828 5828 5828 5829 5828 5828 5828 5828 5828 5828 5827 5827 5827 5827 5827 5828 5828 5828 5828 5828 5828 5828 5828 5828
5806 5807 5807 5808 5809 5809 5810 5810 5811 5811 5811 5811 5811 5811 5812 5814 5814 5814 5812 5811 5810 5810 5809 5808 5807 5807 5807 5807 5808 5808 5808 5808 5808 5808 5808 5808 5808 5809 5811 5812 5813 5814 5815 5816 5817 5817 5818 5819 5819 5820 5820 5820 5821 5822 5822 5822 5823 5824 5825 5826 5827 5827 5826 5827 5827 5827 5827 5827 5827 5827 5827 5827 5827 5827 5827 5827 5827 5827 5827 5828 5828 5828 5828 5828 5827
5806 5805 5806 5806 5807 5807 5807 5808 5809 5809 5809 5809 5810 5811 5812 5812 5812 5812 5811 5810 5809 5808 5807 5806 5806 5805 5805 5805 5806 5806 5806 5806 5806 5806 5806 5806 5806 5807 5809 5810 5811 5812 5813 5814 5815 5816 5816 5817 5818 5818 5818 5819 5820 5821 5821 5822 5822 5823 5824 5825 5825 5825 5826 5826 5826 5826 5826 5826 5826 5826 5826 5826 5826 5826 5826 5826 5827 5827 5827 5827 5827 5827 5827 5827 5827
5804 5804 5804 5805 5805 5805 5805 5806 5806 5807 5807 5808 5809 5810 5810 5810 5810 5810 5809 5808 5807 5807 5806 5805 5804 5804 5803 5804 5804 5804 5805 5804 5804 5804 5804 5804 5805 5806 5806 5807 5808 5809 5810 5812 5813 5814 5814 5816 5817 5817 5817 5818 5819 5820 5820 5821 5821 5822 5823 5824 5824 5824 5825 5825 5825 5825 5825 5824 5825 5825 5825 5826 5826 5826 5826 5826 5826 5826 5827 5827 5826 5826 5826 5826 5826
5803 5802 5802 5802 5803 5803 5804 5804 5804 5804 5805 5805 5806 5807 5807 5808 5808 5808 5807 5806 5806 5805 5804 5803 5802 5802 5802 5802 5802 5803 5803 5802 5801 5801 5802 5803 5803 5804 5805 5805 5806 5807 5808 5809 5810 5812 5812 5814 5814 5815 5817 5818 5817 5818 5819 5819 5820 5821 5822 5823 5823 5823 5823 5824 5824 5824 5824 5823 5824 5824 5824 5825 5825 5825 5825 5825 5825 5826 5826 5826 5826 5826 5826 5826 5825
5800 5800 5799 5799 5800 5800 5800 5800 5800 5800 5801 5801 5802 5803 5804 5805 5805 5805 5804 5803 5803 5802 5801 5800 5800 5800 5800 5801 5801 5801 5800 5799 5798 5799 5800 5800 5802 5803 5803 5803 5804 5805 5805 5806 5808 5810 5810 5811 5813 5814 5815 5815 5815 5816 5817 5818 5819 5820 5821 5821 5821 5822 5822 5822 5822 5823 5823 5822 5822 5823 5824 5824 5824 5824 5824 5824 5825 5825 5825 5825 5825 5825 5825 5825 5825
5796 5796 5796 5796 5796 5796 5796 5796 5796 5795 5795 5796 5797 5798 5799 5800 5800 5800 5800 5799 5799 5798 5797 5797 5797 5797 5798 5798 5798 5797 5797 5796 5796 5796 5797 5798 5799 5801 5801 5801 5802 5803 5804 5805 5806 5807 5808 5809 5811 5812 5812 5812 5813 5815 5815 5816 5817 5818 5819 5820 5820 5821 5821 5821 5822 5822 5822 5821 5821 5822 5822 5823 5823 5823 5823 5824 5824 5824 5824 5824 5825 5824 5824 5824 5824
5793 5793 5792 5791 5791 5791 5791 5790 5790 5790 5790 5790 5791 5793 5794 5795 5795 5795 5795 5794 5794 5794 5793 5793 5793 5794 5795 5795 5795 5794 5794 5795 5794 5794 5795 5796 5797 5799 5799 5799 5800 5801 5802 5803 5804 5805 5806 5807 5808 5809 5810 5811 5812 5813 5814 5815 5816 5817 5818 5819 5819 5820 5820 5820 5821 5821 5821 5820 5820 5821 5821 5822 5822 5822 5822 5823 5823 5823 5824 5824 5824 5824 5823 5823 5823
5791 5790 5789 5789 5788 5787 5786 5785 5786 5787 5788 5789 5789 5789 5790 5791 5791 5791 5790 5790 5790 5789 5788 5788 5789 5791 5792 5792 5792 5793 5793 5793 5792 5792 5792 5793 5795 5796 5797 5797 5798 5799 5800 5801 5802 5802 5804 5805 5806 5807 5808 5809 5810 5812 5813 5813 5815 5816 5817 5818 5818 5819 5819 5819 5819 5820 5820 5819 5819 5820 5820 5821 5821 5821 5821 5822 5822 5822 5823 5823 5823 5823 5823 5822 5822
5788 5788 5788 5789 5790 5789 5788 5787 5788 5789 5789 5789 5789 5788 5788 5787 5787 5787 5787 5787 5788 5787 5786 5784 5785 5787 5788 5789 5789 5790 5790 5791 5791 5790 5790 5791 5792 5793 5794 5795 5796 5797 5798 5799 5800 5800 5801 5802 5804 5805 5806 5808 5809 5810 5811 5812 5813 5815 5815 5816 5817 5817 5818 5818 5818 5818 5819 5818 5818 5818 5819 5819 5819 5820 5820 5820 5821 5821 5822 5822 5822 5822 5822 5821 5821
5786 5786 5787 5788 5788 5789 5789 5789 5789 5790 5790 5789 5788 5788 5787 5785 5784 5783 5784 5785 5787 5787 5785 5784 5782 5782 5784 5785 5786 5787 5788 5788 5789 5788 5789 5790 5791 5791 5792 5792 5793 5795 5796 5797 5798 5798 5799 5801 5802 5803 5805 5806 5807 5808 5809 5810 5812 5813 5814 5815 5815 5816 5817 5817 5817 5817 5817 5817 5817 5817 5818 5818 5818 5818 5819 5819 5820 5820 5820 5821 5820 5820 5821 5820 5820
5785 5785 5785 5785 5785 5784 5785 5786 5787 5787 5787 5787 5787 5786 5784 5782 5779 5779 5782 5784 5784 5783 5781 5781 5781 5780 5781 5782 5783 5785 5785 5785 5786 5786 5787 5788 5788 5788 5789 5790 5791 5792 5793 5795 5796 5796 5797 5799 5800 5801 5803 5804 5805 5807 5808 5809 5810 5811 5812 5813 5814 5815 5815 5816 5816 5816 5816 5816 5816 5816 5817 5817 5817 5817 5818 5818 5818 5819 5819 5819 5819 5819 5819 5819 5819
5783 5783 5782 5783 5783 5781 5781 5782 5784 5784 5784 5784 5784 5783 5781 5778 5776 5777 5780 5781 5780 5780 5779 5779 5779 5778 5777 5778 5780 5782 5781 5782 5783 5784 5784 5785 5786 5786 5786 5787 5789 5790 5791 5793 5794 5794 5795 5797 5797 5799 5801 5802 5803 5805 5806 5807 5808 5810 5811 5812 5812 5813 5813 5814 5814 5815 5815 5815 5815 5815 5815 5816 5815 5815 5816 5817 5817 5817 5817 5817 5818 5818 5818 5818 5818
5780 5780 5780 5779 5779 5779 5779 5779 5781 5782 5781 5780 5780 5778 5776 5775 5774 5776 5779 5778 5776 5777 5777 5777 5776 5775 5775 5775 5776 5777 5777 5778 5779 5780 5781 5782 5783 5784 5784 5785 5787 5788 5789 5791 5792 5793 5794 5795 5795 5797 5799 5800 5801 5803 5804 5805 5807 5808 5809 5810 5810 5811 5812 5813 5813 5814 5814 5813 5813 5813 5813 5814 5813 5813 5814 5815 5815 5816 5816 5816 5817 5817 5817 5817 5816
5778 5777 5777 5776 5776 5776 5776 5777 5778 5778 5778 5777 5776 5774 5772 5772 5772 5773 5774 5774 5773 5772 5772 5773 5772 5772 5772 5772 5773 5773 5774 5776 5777 5777 5778 5778 5780 5781 5781 5782 5784 5785 5786 5788 5790 5791 5793 5793 5794 5795 5797 5798 5799 5801 5802 5803 5805 5806 5807 5808 5808 5809 5810 5811 5812 5812 5812 5812 5812 5812 5812 5812 5811 5811 5812 5813 5813 5814 5814 5815 5815 5815 5815 5815 5815